This is the latest recevied weather packets stored in our database for station/object W4BOD. If no packets are shown the sender has not sent any weather packets the latest 10 day(s).
| Time | Temp. | Humidity | Pressure | Rain* | Wind** | Luminosity | Snow |
|---|---|---|---|---|---|---|---|
| 1777974007 | 15.56° C | 83% | 1010.8 hPa | 0 mm | - | 0 W/m² | - |
| 1777973703 | 15.56° C | 83% | 1010.9 hPa | 0 mm | - | 0 W/m² | - |
| 1777973401 | 15° C | 84% | 1010.4 hPa | 0 mm | - | 0 W/m² | - |
| 1777973098 | 15° C | 83% | 1010.5 hPa | 0 mm | - | 0 W/m² | - |
| 1777972796 | 15° C | 82% | 1010.5 hPa | 0 mm | - | 0 W/m² | - |
| 1777972493 | 15° C | 83% | 1010.6 hPa | 0 mm | - | 0 W/m² | - |
| 1777972191 | 15° C | 81% | 1010.8 hPa | 0 mm | - | 0 W/m² | - |
| 1777971889 | 15.56° C | 79% | 1011.1 hPa | 0 mm | - | 0 W/m² | - |
| 1777971586 | 16.11° C | 76% | 1010.8 hPa | 0 mm | - | 0 W/m² | - |
| 1777971284 | 16.11° C | 75% | 1010.9 hPa | 0 mm | - | 0 W/m² | - |
| 1777970982 | 16.67° C | 75% | 1010.8 hPa | 0 mm | - | 0 W/m² | - |
| 1777970680 | 16.67° C | 74% | 1010.7 hPa | 0 mm | - | 0 W/m² | - |
| 1777970377 | 16.67° C | 74% | 1010.6 hPa | 0 mm | - | 0 W/m² | - |
| 1777970074 | 16.67° C | 73% | 1010.8 hPa | 0 mm | - | 0 W/m² | - |
| 1777969771 | 17.22° C | 73% | 1010.6 hPa | 0 mm | - | 0 W/m² | - |
| 1777969466 | 17.22° C | 72% | 1010.8 hPa | 0 mm | - | 0 W/m² | - |
| 1777969164 | 17.22° C | 72% | 1010.5 hPa | 0 mm | - | 0 W/m² | - |
| 1777968861 | 17.78° C | 71% | 1010.4 hPa | 0 mm | - | 0 W/m² | - |
| 1777968557 | 17.78° C | 71% | 1010.5 hPa | 0 mm | - | 0 W/m² | - |
| 1777968253 | 17.78° C | 71% | 1010.4 hPa | 0 mm | - | 0 W/m² | - |
| 1777967949 | 17.78° C | 72% | 1010.3 hPa | 0 mm | - | 0 W/m² | - |
| 1777967646 | 17.78° C | 71% | 1010.4 hPa | 0 mm | - | 0 W/m² | - |
| 1777967343 | 17.78° C | 70% | 1010.4 hPa | 0 mm | - | 0 W/m² | - |
| 1777967040 | 18.33° C | 70% | 1010.7 hPa | 0 mm | - | 0 W/m² | - |
| 1777966737 | 18.33° C | 69% | 1010.3 hPa | 0 mm | - | 0 W/m² | - |
* Rain latest hour (hover to see other rain measurements)
** Current wind speed in m/s (hover to see current wind gust speed)